User: anonymous   Login
Location: Unspecified
(0.0000°N, 0.0000°E)
Time: 11:07:00
(UTC+00:00)
Language:

PROBA 2 - Orbit

View from above orbital plane
View from above orbital plane
View from above satellite
View from above satellite

Ground track
Ground track

The orbit data is extracted from the following two-line orbital elements,

1 36037U 09059B   15061.52637447  .00000358  00000-0  98038-4 0  9991
2 36037 098.2785 256.0022 0013967 038.8758 013.9558 14.52792089282507
Epoch (UTC): 02 March 2015 12:37:58
Eccentricity: 0.0013967
inclination: 98.2785°
perigee height: 706 km
apogee height: 726 km
right ascension of ascending node: 256.0022°
argument of perigee: 38.8758°
revolutions per day: 14.52792089
mean anomaly at epoch: 13.9558°
orbit number at epoch: 28250

The dashed part of the orbit path shows where the satellite is in the earth's shadow,  

DLR